NOAA 16 DEB, 41663

Orbit data source: Space-Track

NOAA 16 DEB, 41663 is space debris in SSO originally from a launch on Thu, 21 Sep 2000 UTC launched from the Air Force Western Test Range (AFWTR). Debris objects in space refer to the collection of defunct objects orbiting the Earth. Examples of debris include non-operational satellites, rocket bodies, and fragments generated from explosions, collisions, or faulty payload assembly.

Loading next visibility...
Identifier
41663, 2000-055PC
Orbit
SSO
Country
Flag of USUS
Related business
Manufacturer
Unknown
Mission
Spacecraft
Bus & Motor
Unknown
Mass
Unknown
Launch date (UTC)
2000-09-21 (26 years ago)
Launch vehicle
Unknown
Launch site
Air Force Western Test Range (AFWTR)
Object type
Payload
Rocket body
Debris
Shape & HBR
Unknown shape, 0.1 m
Radar Cross Section
Medium (>0.1 m² and <1 m²)

Expand to show TLE details & history
Last TLE update: 12 hours ago

TLE from 12 hours ago
0 NOAA 16 DEB
1 41663U 00055PC  26207.37173099  .00011857  00000-0  25343-2 0  9997
2 41663  98.8299 358.2673 0009477   2.4795 357.6447 14.58938013534386
Epoch: 2026-07-26T08:55Z
TLE epoch observation values (Epoch: 2026-07-26T08:55:17.557Z)
Latitude
-0.00011°
Longitude
-79.62645°
Altitude
692.868 km
Speed
7.513 km/s
True Right ascension
23h 53m 04s
True Declination
0° 00' 00"
Sunlit
Object was in full shadow at epoch
Visualization orbit readout
Latitude
Unknown
Longitude
Unknown
Altitude
Unknown
Speed
Unknown
Apparent Right ascension
Unknown
Apparent Declination
Unknown
Sunlit
N/A
Visualization observer readout
Local Sidereal Time
10:40:00
Azimuth
Unknown
Elevation
Unknown
Doppler factor
Unknown
Orbital elements
Apogee altitude
700.42 km
Perigee altitude
687.016 km
Semi-major axis
7,071.855 km
Eccentricity
0.00095
Inclination
98.8299°
RAAN
358.2673°
Arg. of periapsis
2.4795°
True anomaly
357.64023°
Mean anomaly
357.6447°
Eccentric anomaly
357.64247°
Mean motion
3.64958 °/min
Orbital period
98.64 mins
BSTAR
0.0025343
Loading maneuver chart data...
Computing Atmospheric mass density...

Documentation

Showing up to 5 results
|